Regional Weather Roundup
Issued by NWS Cleveland, OH

Home | Current Version | Previous Version | Graphics & Text | Print | Product List | Glossary On
Versions: 1 2 3 4 5 6 7 8 9 10 11 12 13 14 15 16 17 18 19 20 21 22 23 24 25 26 27 28 29 30 31 32 33 34 35 36 37 38 39 40 41 42 43 44 45 46 47 48 49 50
409
ASUS41 KCLE 270012
RWRCLE
OHIO REGIONAL WEATHER ROUNDUP
NATIONAL WEATHER SERVICE WILMINGTON, OH
800 PM EDT SUN MAR 26 2017

NOTE: "FAIR" INDICATES FEW OR NO CLOUDS BELOW 12,000 FEET WITH NO
SIGNIFICANT WEATHER AND/OR OBSTRUCTIONS TO VISIBILITY.

OHZ001>008-015>018-024>027-034-035-043-044-270100-
   NORTHWEST OHIO

CITY           SKY/WX    TMP DP  RH WIND       PRES   REMARKS
DEFIANCE       CLOUDY    53  50  89 SE5       29.89R
FINDLAY        RAIN      59  53  80 SW17      29.90R
TOLEDO EXPRESS TSTM      53  51  93 MISG      29.90R
TOLEDO EXEC    FAIR      50  48  93 E3        29.89S FOG
LIMA           CLOUDY    55  53  93 SW6       29.90S
$$

OHZ009>014-019>023-028>033-038-089-270100-
   NORTHEAST OHIO

CITY           SKY/WX    TMP DP  RH WIND       PRES   REMARKS
CLE-HOPKINS    FAIR      58  52  80 S8        29.95S
CLE-LAKEFRONT  MOCLDY    51  49  92 CALM      29.92S FOG
CUY CO. ARPT   MOCLDY    55  54  94 CALM      29.94R
LORAIN-ELYRIA  MOCLDY    56  51  84 S9        29.92S
ASHTABULA      LGT RAIN  57  55  93 S10G22    29.96R
AKRON-CANTON   MOCLDY    56  51  84 S8        29.94F
WOOSTER        FAIR      54  51  90 CALM      29.95R
MANSFIELD      LGT RAIN  55  53  93 S10       29.92S
YOUNGSTOWN     LGT RAIN  56  53  90 SE9       29.98R
$$

OHZ042-051>053-060>062-070>072-077>081-270100-
  SOUTHWEST OHIO

CITY           SKY/WX    TMP DP  RH WIND       PRES   REMARKS
CINC-COVINGTON CLOUDY    58  56  93 W6        29.93R
CINC-LUNKEN    LGT RAIN  58  50  76 SW3       29.94R
HAMILTON       LGT RAIN  59  58  96 W3        29.93S
DAYTON         CLOUDY    56  53  90 CALM      29.92S
WRIGHT-PAT AFB DRIZZLE   57  57 100 S5        29.92R
DAYTON GENERAL CLOUDY    58  55  90 SW5       29.92R
WILMINGTON     CLOUDY    56  53  90 SW7       29.93S
$$

OHZ036-037-039>041-045>050-054>059-063>069-073>076-082>088-270100-
  CENTRAL AND SOUTHEAST OHIO

CITY           SKY/WX    TMP DP  RH WIND       PRES   REMARKS
COLUMBUS       CLOUDY    62  56  80 SE7       29.89F
OSU AIRPORT    TSTM      57  56  96 NW5       29.91S FOG
BOLTON FIELD   NOT AVBL
RICKENBACK AFB CLOUDY    60  56  87 SE10      29.90S
NEWARK         MOCLDY    61  53  75 S6        29.92R
MARION         LGT RAIN  57  54  89 S7        29.92S
LANCASTER      MOCLDY    62  54  74 SE8       29.93R
ZANESVILLE     FAIR      57  51  80 S7        29.95S
NEW PHILLY     FAIR      58  54  86 S6        29.96S
$$




USA.gov is the U.S. government's official web portal to all federal, state and local government web resources and services.